Time,TemperatureF,DewpointF,PressureIn,WindDirection,WindDirectionDegrees,WindSpeedMPH,WindSpeedGustMPH,Humidity,HourlyPrecipIn,Conditions,Clouds,dailyrainin,SolarRadiationWatts/m^2,SoftwareType,DateUTC
2013-01-03 00:02:00,64.5,63.0,30.07,South,176,0.0,0.0,95,0.00,,,0.00,0,Wunderground v.1.15,2013-01-03 05:02:00,
2013-01-03 00:07:00,64.8,63.3,30.07,South,176,0.0,0.0,95,0.00,,,0.00,0,Wunderground v.1.15,2013-01-03 05:07:00,
2013-01-03 00:12:00,64.8,63.3,30.07,South,176,0.0,0.0,95,0.00,,,0.00,0,Wunderground v.1.15,2013-01-03 05:12:00,
2013-01-03 00:17:00,64.8,63.3,30.07,South,176,0.0,0.0,95,0.00,,,0.00,0,Wunderground v.1.15,2013-01-03 05:17:00,
2013-01-03 00:22:00,65.0,63.5,30.06,South,176,0.0,0.0,95,0.00,,,0.00,0,Wunderground v.1.15,2013-01-03 05:22:00,
2013-01-03 00:27:00,65.0,63.5,30.06,South,176,0.0,0.0,95,0.00,,,0.00,0,Wunderground v.1.15,2013-01-03 05:27:00,
2013-01-03 00:37:00,65.3,63.8,30.06,South,176,0.0,0.0,95,0.00,,,0.00,0,Wunderground v.1.15,2013-01-03 05:37:00,
2013-01-03 00:42:00,65.3,63.8,30.06,South,176,0.0,0.0,95,0.00,,,0.00,0,Wunderground v.1.15,2013-01-03 05:42:00,
2013-01-03 00:52:00,65.5,64.0,30.06,South,176,0.0,0.0,95,0.00,,,0.00,0,Wunderground v.1.15,2013-01-03 05:52:00,
2013-01-03 00:57:00,65.6,64.1,30.06,South,176,0.0,0.0,95,0.00,,,0.00,0,Wunderground v.1.15,2013-01-03 05:57:00,
2013-01-03 01:07:00,65.6,64.1,30.05,South,176,0.0,0.0,95,0.00,,,0.00,0,Wunderground v.1.15,2013-01-03 06:07:00,
2013-01-03 01:12:00,65.8,64.3,30.05,South,176,0.0,0.0,95,0.00,,,0.00,0,Wunderground v.1.15,2013-01-03 06:12:00,
2013-01-03 01:22:00,66.0,64.8,30.05,South,176,1.0,2.0,96,0.00,,,0.00,0,Wunderground v.1.15,2013-01-03 06:22:00,
2013-01-03 01:32:00,66.1,64.9,30.05,South,176,1.0,1.0,96,0.00,,,0.00,0,Wunderground v.1.15,2013-01-03 06:32:00,
2013-01-03 01:37:00,66.1,64.9,30.06,South,176,1.0,1.0,96,0.00,,,0.00,0,Wunderground v.1.15,2013-01-03 06:37:00,
2013-01-03 01:47:00,66.1,64.9,30.05,South,176,0.0,0.0,96,0.00,,,0.00,0,Wunderground v.1.15,2013-01-03 06:47:00,
2013-01-03 01:52:00,66.1,64.9,30.06,South,176,0.0,0.0,96,0.00,,,0.00,0,Wunderground v.1.15,2013-01-03 06:52:00,
2013-01-03 01:57:00,66.0,64.8,30.06,South,171,0.0,0.0,96,0.00,,,0.00,0,Wunderground v.1.15,2013-01-03 06:57:00,
2013-01-03 02:07:00,66.0,64.8,30.05,South,176,0.0,0.0,96,0.00,,,0.00,0,Wunderground v.1.15,2013-01-03 07:07:00,
2013-01-03 02:12:00,66.0,64.8,30.05,South,176,0.0,0.0,96,0.00,,,0.00,0,Wunderground v.1.15,2013-01-03 07:12:00,
2013-01-03 02:22:00,65.8,64.6,30.05,South,171,0.0,0.0,96,0.00,,,0.00,0,Wunderground v.1.15,2013-01-03 07:22:00,
2013-01-03 02:27:00,65.8,64.6,30.05,South,176,0.0,0.0,96,0.00,,,0.00,0,Wunderground v.1.15,2013-01-03 07:27:00,
2013-01-03 02:37:00,65.8,64.6,30.05,South,176,1.0,1.0,96,0.00,,,0.00,0,Wunderground v.1.15,2013-01-03 07:37:00,
2013-01-03 02:47:00,66.0,64.8,30.05,SE,136,1.0,2.0,96,0.00,,,0.00,0,Wunderground v.1.15,2013-01-03 07:47:00,
2013-01-03 02:57:00,66.0,64.8,30.05,SE,138,1.0,2.0,96,0.00,,,0.00,0,Wunderground v.1.15,2013-01-03 07:57:00,
2013-01-03 03:02:00,66.0,64.8,30.04,SE,138,1.0,1.0,96,0.00,,,0.00,0,Wunderground v.1.15,2013-01-03 08:02:00,
2013-01-03 03:12:00,66.1,64.9,30.04,SE,138,1.0,1.0,96,0.00,,,0.00,0,Wunderground v.1.15,2013-01-03 08:12:00,
2013-01-03 03:17:00,66.1,64.9,30.04,SE,137,1.0,3.0,96,0.00,,,0.00,0,Wunderground v.1.15,2013-01-03 08:17:00,
2013-01-03 03:22:00,66.1,64.9,30.04,SE,131,2.0,3.0,96,0.00,,,0.00,0,Wunderground v.1.15,2013-01-03 08:22:00,
2013-01-03 03:27:00,66.3,65.4,30.04,ESE,119,3.0,3.0,97,0.00,,,0.00,0,Wunderground v.1.15,2013-01-03 08:27:00,
2013-01-03 03:37:00,66.3,65.4,30.04,ESE,112,2.0,3.0,97,0.00,,,0.00,0,Wunderground v.1.15,2013-01-03 08:37:00,
2013-01-03 03:47:00,66.3,65.4,30.04,ESE,113,2.0,3.0,97,0.00,,,0.00,0,Wunderground v.1.15,2013-01-03 08:47:00,
2013-01-03 03:52:00,66.3,65.4,30.04,ESE,110,2.0,2.0,97,0.00,,,0.00,0,Wunderground v.1.15,2013-01-03 08:52:00,
2013-01-03 03:57:00,66.3,65.4,30.04,ESE,110,2.0,3.0,97,0.00,,,0.00,0,Wunderground v.1.15,2013-01-03 08:57:00,
2013-01-03 04:07:00,66.1,65.2,30.04,ESE,123,3.0,5.0,97,0.00,,,0.00,0,Wunderground v.1.15,2013-01-03 09:07:00,
2013-01-03 04:17:00,66.0,65.1,30.04,SE,131,3.0,4.0,97,0.00,,,0.00,0,Wunderground v.1.15,2013-01-03 09:17:00,
2013-01-03 04:22:00,66.0,65.1,30.04,ESE,117,3.0,3.0,97,0.00,,,0.00,0,Wunderground v.1.15,2013-01-03 09:22:00,
2013-01-03 04:27:00,65.8,64.9,30.04,SE,136,3.0,4.0,97,0.00,,,0.00,0,Wunderground v.1.15,2013-01-03 09:27:00,
2013-01-03 04:32:00,65.8,64.9,30.04,SE,124,4.0,4.0,97,0.00,,,0.00,0,Wunderground v.1.15,2013-01-03 09:32:00,
2013-01-03 04:37:00,65.6,64.7,30.04,East,96,3.0,4.0,97,0.00,,,0.00,0,Wunderground v.1.15,2013-01-03 09:37:00,
2013-01-03 04:42:00,65.6,64.7,30.04,SE,131,2.0,3.0,97,0.00,,,0.00,0,Wunderground v.1.15,2013-01-03 09:42:00,
2013-01-03 04:52:00,65.5,64.6,30.04,ESE,123,3.0,3.0,97,0.00,,,0.00,0,Wunderground v.1.15,2013-01-03 09:52:00,
2013-01-03 04:57:00,65.5,64.6,30.04,SE,138,3.0,3.0,97,0.00,,,0.00,0,Wunderground v.1.15,2013-01-03 09:57:00,
2013-01-03 05:02:00,65.3,64.4,30.04,SSE,147,3.0,3.0,97,0.00,,,0.00,0,Wunderground v.1.15,2013-01-03 10:02:00,
2013-01-03 05:12:00,65.5,64.6,30.04,SE,126,3.0,3.0,97,0.00,,,0.00,0,Wunderground v.1.15,2013-01-03 10:12:00,
2013-01-03 05:17:00,65.5,64.6,30.04,SSE,152,2.0,3.0,97,0.00,,,0.00,0,Wunderground v.1.15,2013-01-03 10:17:00,
2013-01-03 05:22:00,65.5,64.6,30.04,ESE,123,2.0,3.0,97,0.00,,,0.00,0,Wunderground v.1.15,2013-01-03 10:22:00,
2013-01-03 05:27:00,65.5,64.6,30.04,ESE,116,2.0,3.0,97,0.00,,,0.00,0,Wunderground v.1.15,2013-01-03 10:27:00,
2013-01-03 05:37:00,65.3,64.4,30.04,SE,130,2.0,2.0,97,0.00,,,0.00,0,Wunderground v.1.15,2013-01-03 10:37:00,
2013-01-03 05:42:00,65.3,64.4,30.04,ESE,116,2.0,2.0,97,0.00,,,0.00,0,Wunderground v.1.15,2013-01-03 10:42:00,
2013-01-03 05:47:00,65.3,64.4,30.05,ESE,120,2.0,2.0,97,0.00,,,0.00,0,Wunderground v.1.15,2013-01-03 10:47:00,
2013-01-03 05:57:00,65.3,64.4,30.06,ESE,120,0.0,1.0,97,0.00,,,0.00,0,Wunderground v.1.15,2013-01-03 10:57:00,
2013-01-03 06:02:00,65.3,64.4,30.06,ESE,120,0.0,0.0,97,0.00,,,0.00,0,Wunderground v.1.15,2013-01-03 11:02:00,
2013-01-03 06:12:00,65.3,64.4,30.07,ESE,120,0.0,0.0,97,0.00,,,0.00,0,Wunderground v.1.15,2013-01-03 11:12:00,
2013-01-03 06:22:00,65.3,64.4,30.07,ESE,120,0.0,0.0,97,0.00,,,0.00,0,Wunderground v.1.15,2013-01-03 11:22:00,
2013-01-03 06:32:00,65.3,64.7,30.07,ESE,120,0.0,0.0,98,0.00,,,0.00,0,Wunderground v.1.15,2013-01-03 11:32:00,
2013-01-03 06:37:00,65.3,64.7,30.07,ESE,120,0.0,0.0,98,0.00,,,0.01,0,Wunderground v.1.15,2013-01-03 11:37:00,
2013-01-03 06:42:00,65.3,64.7,30.07,ESE,120,0.0,1.0,98,0.00,,,0.01,0,Wunderground v.1.15,2013-01-03 11:42:00,
2013-01-03 06:52:00,65.2,64.6,30.07,ESE,120,1.0,1.0,98,0.00,,,0.01,0,Wunderground v.1.15,2013-01-03 11:52:00,
2013-01-03 07:02:00,65.0,64.4,30.08,ESE,120,0.0,0.0,98,0.00,,,0.01,0,Wunderground v.1.15,2013-01-03 12:02:00,
2013-01-03 07:07:00,65.0,64.4,30.08,ESE,120,0.0,0.0,98,0.00,,,0.01,0,Wunderground v.1.15,2013-01-03 12:07:00,
2013-01-03 07:17:00,65.0,64.4,30.08,ESE,120,1.0,3.0,98,0.00,,,0.01,0,Wunderground v.1.15,2013-01-03 12:17:00,
2013-01-03 07:22:00,65.0,64.4,30.08,ESE,116,2.0,2.0,98,0.00,,,0.01,0,Wunderground v.1.15,2013-01-03 12:22:00,
2013-01-03 07:27:00,65.0,64.4,30.08,ESE,120,2.0,2.0,98,0.00,,,0.01,0,Wunderground v.1.15,2013-01-03 12:27:00,
2013-01-03 07:37:00,65.0,64.4,30.08,ESE,120,1.0,2.0,98,0.00,,,0.01,0,Wunderground v.1.15,2013-01-03 12:37:00,
2013-01-03 07:42:00,65.0,64.4,30.09,ESE,103,2.0,2.0,98,0.00,,,0.01,0,Wunderground v.1.15,2013-01-03 12:42:00,
2013-01-03 07:47:00,64.8,64.2,30.09,ESE,103,1.0,2.0,98,0.00,,,0.01,5,Wunderground v.1.15,2013-01-03 12:47:00,
2013-01-03 07:52:00,64.8,64.2,30.09,ESE,103,1.0,1.0,98,0.00,,,0.01,12,Wunderground v.1.15,2013-01-03 12:52:00,
2013-01-03 07:57:00,64.8,64.2,30.09,ESE,103,1.0,2.0,98,0.00,,,0.01,14,Wunderground v.1.15,2013-01-03 12:57:00,
2013-01-03 08:07:00,65.0,64.4,30.09,ESE,103,1.0,2.0,98,0.00,,,0.01,25,Wunderground v.1.15,2013-01-03 13:07:00,
2013-01-03 08:12:00,65.0,64.4,30.09,ESE,103,0.0,1.0,98,0.00,,,0.01,23,Wunderground v.1.15,2013-01-03 13:12:00,
2013-01-03 08:17:00,65.0,64.4,30.09,ESE,103,0.0,1.0,98,0.00,,,0.01,35,Wunderground v.1.15,2013-01-03 13:17:00,
2013-01-03 08:27:00,65.2,64.6,30.10,SE,128,2.0,3.0,98,0.00,,,0.01,40,Wunderground v.1.15,2013-01-03 13:27:00,
2013-01-03 08:32:00,65.3,64.7,30.09,ESE,116,2.0,3.0,98,0.00,,,0.01,49,Wunderground v.1.15,2013-01-03 13:32:00,
2013-01-03 08:37:00,65.5,64.9,30.09,SE,128,3.0,4.0,98,0.00,,,0.01,63,Wunderground v.1.15,2013-01-03 13:37:00,
2013-01-03 08:42:00,65.5,64.9,30.09,ESE,113,3.0,3.0,98,0.00,,,0.01,99,Wunderground v.1.15,2013-01-03 13:42:00,
2013-01-03 08:52:00,65.5,64.9,30.10,ESE,107,2.0,2.0,98,0.00,,,0.01,146,Wunderground v.1.15,2013-01-03 13:52:00,
2013-01-03 08:57:00,65.6,65.0,30.10,ESE,107,1.0,2.0,98,0.00,,,0.01,141,Wunderground v.1.15,2013-01-03 13:57:00,
2013-01-03 09:02:00,65.6,65.0,30.10,ESE,107,1.0,1.0,98,0.00,,,0.01,181,Wunderground v.1.15,2013-01-03 14:02:00,
2013-01-03 09:07:00,65.8,65.2,30.10,SSE,150,1.0,2.0,98,0.00,,,0.01,155,Wunderground v.1.15,2013-01-03 14:07:00,
2013-01-03 09:17:00,66.0,65.4,30.10,ESE,120,2.0,2.0,98,0.00,,,0.01,99,Wunderground v.1.15,2013-01-03 14:17:00,
2013-01-03 09:22:00,66.1,65.5,30.10,ESE,116,2.0,5.0,98,0.00,,,0.01,181,Wunderground v.1.15,2013-01-03 14:22:00,
2013-01-03 09:27:00,66.1,65.5,30.10,East,89,2.0,5.0,98,0.00,,,0.01,95,Wunderground v.1.15,2013-01-03 14:27:00,
2013-01-03 09:37:00,66.8,66.2,30.10,East,92,3.0,3.0,98,0.00,,,0.01,315,Wunderground v.1.15,2013-01-03 14:37:00,
2013-01-03 09:42:00,66.6,66.0,30.10,ESE,107,2.0,2.0,98,0.00,,,0.01,206,Wunderground v.1.15,2013-01-03 14:42:00,
2013-01-03 09:47:00,67.1,66.5,30.10,ESE,113,3.0,3.0,98,0.00,,,0.01,135,Wunderground v.1.15,2013-01-03 14:47:00,
2013-01-03 09:57:00,66.8,66.2,30.11,East,88,3.0,3.0,98,0.00,,,0.01,162,Wunderground v.1.15,2013-01-03 14:57:00,
2013-01-03 10:07:00,67.3,66.4,30.11,ESE,102,3.0,6.0,97,0.00,,,0.01,447,Wunderground v.1.15,2013-01-03 15:07:00,
2013-01-03 10:12:00,67.3,66.4,30.11,SE,131,4.0,4.0,97,0.00,,,0.01,447,Wunderground v.1.15,2013-01-03 15:12:00,
2013-01-03 10:22:00,67.8,66.9,30.11,SE,134,4.0,5.0,97,0.00,,,0.01,306,Wunderground v.1.15,2013-01-03 15:22:00,
2013-01-03 10:32:00,68.9,67.4,30.10,SE,130,4.0,4.0,95,0.00,,,0.01,245,Wunderground v.1.15,2013-01-03 15:32:00,
2013-01-03 10:42:00,69.8,67.7,30.10,ESE,116,4.0,7.0,93,0.00,,,0.01,348,Wunderground v.1.15,2013-01-03 15:42:00,
2013-01-03 10:47:00,70.3,68.2,30.10,East,97,5.0,7.0,93,0.00,,,0.01,776,Wunderground v.1.15,2013-01-03 15:47:00,
2013-01-03 10:57:00,71.3,67.2,30.10,ENE,76,3.0,5.0,87,0.00,,,0.01,750,Wunderground v.1.15,2013-01-03 15:57:00,
2013-01-03 11:02:00,71.8,67.0,30.10,ENE,75,2.0,3.0,85,0.00,,,0.01,380,Wunderground v.1.15,2013-01-03 16:02:00,
2013-01-03 11:12:00,71.6,66.8,30.10,East,92,4.0,4.0,85,0.00,,,0.01,422,Wunderground v.1.15,2013-01-03 16:12:00,
2013-01-03 11:17:00,72.0,66.6,30.10,East,99,4.0,4.0,83,0.00,,,0.01,283,Wunderground v.1.15,2013-01-03 16:17:00,
2013-01-03 11:27:00,71.8,66.4,30.09,ENE,71,3.0,3.0,83,0.00,,,0.01,250,Wunderground v.1.15,2013-01-03 16:27:00,
2013-01-03 11:37:00,72.1,66.6,30.09,East,85,2.0,4.0,83,0.00,,,0.01,385,Wunderground v.1.15,2013-01-03 16:37:00,
2013-01-03 11:42:00,73.2,67.0,30.09,East,99,3.0,6.0,81,0.00,,,0.01,422,Wunderground v.1.15,2013-01-03 16:42:00,
2013-01-03 11:52:00,72.7,66.5,30.08,ENE,72,2.0,3.0,81,0.00,,,0.01,406,Wunderground v.1.15,2013-01-03 16:52:00,
2013-01-03 11:57:00,73.0,66.5,30.08,ENE,75,2.0,3.0,80,0.00,,,0.01,359,Wunderground v.1.15,2013-01-03 16:57:00,
2013-01-03 12:07:00,73.3,66.4,30.07,NE,51,4.0,5.0,79,0.00,,,0.01,361,Wunderground v.1.15,2013-01-03 17:07:00,
2013-01-03 12:17:00,72.7,66.5,30.07,NE,56,3.0,3.0,81,0.00,,,0.01,294,Wunderground v.1.15,2013-01-03 17:17:00,
2013-01-03 12:27:00,72.3,66.5,30.06,NNE,32,2.0,3.0,82,0.00,,,0.01,313,Wunderground v.1.15,2013-01-03 17:27:00,
2013-01-03 12:37:00,72.1,66.3,30.06,NE,49,2.0,5.0,82,0.00,,,0.01,209,Wunderground v.1.15,2013-01-03 17:37:00,
2013-01-03 12:42:00,72.0,66.6,30.06,NNE,27,1.0,1.0,83,0.00,,,0.01,276,Wunderground v.1.15,2013-01-03 17:42:00,
2013-01-03 12:52:00,72.1,66.6,30.06,NE,47,1.0,1.0,83,0.00,,,0.01,232,Wunderground v.1.15,2013-01-03 17:52:00,
2013-01-03 12:57:00,72.0,66.6,30.06,NE,47,1.0,1.0,83,0.00,,,0.01,179,Wunderground v.1.15,2013-01-03 17:57:00,
2013-01-03 13:07:00,72.5,66.7,30.05,NE,56,1.0,3.0,82,0.00,,,0.01,310,Wunderground v.1.15,2013-01-03 18:07:00,
2013-01-03 13:17:00,72.5,66.7,30.05,NE,37,1.0,1.0,82,0.00,,,0.01,176,Wunderground v.1.15,2013-01-03 18:17:00,
2013-01-03 13:27:00,73.3,67.1,30.04,NNE,17,1.0,2.0,81,0.00,,,0.01,581,Wunderground v.1.15,2013-01-03 18:27:00,
2013-01-03 13:37:00,73.7,66.8,30.05,North,353,2.0,2.0,79,0.00,,,0.01,181,Wunderground v.1.15,2013-01-03 18:37:00,
2013-01-03 13:42:00,73.5,66.6,30.05,NNE,18,1.0,1.0,79,0.00,,,0.01,106,Wunderground v.1.15,2013-01-03 18:42:00,
2013-01-03 13:47:00,73.3,66.4,30.04,North,353,1.0,5.0,79,0.00,,,0.01,93,Wunderground v.1.15,2013-01-03 18:47:00,
2013-01-03 13:57:00,73.2,66.7,30.04,North,0,3.0,4.0,80,0.00,,,0.01,111,Wunderground v.1.15,2013-01-03 18:57:00,
2013-01-03 14:07:00,73.0,66.5,30.04,North,356,1.0,2.0,80,0.00,,,0.01,97,Wunderground v.1.15,2013-01-03 19:07:00,
2013-01-03 14:17:00,72.8,66.6,30.04,North,0,1.0,1.0,81,0.00,,,0.01,49,Wunderground v.1.15,2013-01-03 19:17:00,
2013-01-03 14:57:00,70.6,65.2,30.04,NNW,339,5.0,6.0,83,0.00,,,0.01,46,Wunderground v.1.15,2013-01-03 19:57:00,
2013-01-03 15:07:00,70.1,65.0,30.04,NNW,332,3.0,6.0,84,0.00,,,0.01,95,Wunderground v.1.15,2013-01-03 20:07:00,
2013-01-03 15:12:00,69.8,64.7,30.04,North,0,4.0,4.0,84,0.00,,,0.01,60,Wunderground v.1.15,2013-01-03 20:12:00,
2013-01-03 15:17:00,69.6,64.9,30.04,North,0,4.0,4.0,85,0.00,,,0.01,48,Wunderground v.1.15,2013-01-03 20:17:00,
2013-01-03 15:22:00,69.4,64.7,30.04,NNW,333,3.0,4.0,85,0.00,,,0.01,53,Wunderground v.1.15,2013-01-03 20:22:00,
2013-01-03 15:32:00,68.8,64.1,30.05,NNW,329,5.0,5.0,85,0.00,,,0.01,30,Wunderground v.1.15,2013-01-03 20:32:00,
2013-01-03 15:37:00,68.6,63.9,30.04,NW,313,4.0,5.0,85,0.00,,,0.01,35,Wunderground v.1.15,2013-01-03 20:37:00,
2013-01-03 15:42:00,68.1,63.4,30.05,WNW,289,4.0,5.0,85,0.00,,,0.01,28,Wunderground v.1.15,2013-01-03 20:42:00,
2013-01-03 15:47:00,67.8,63.1,30.05,NW,311,5.0,5.0,85,0.00,,,0.01,21,Wunderground v.1.15,2013-01-03 20:47:00,
2013-01-03 15:57:00,67.1,62.8,30.07,WNW,299,4.0,5.0,86,0.00,,,0.02,14,Wunderground v.1.15,2013-01-03 20:57:00,
2013-01-03 16:07:00,66.4,62.4,30.07,WNW,291,3.0,6.0,87,0.13,,,0.04,19,Wunderground v.1.15,2013-01-03 21:07:00,
2013-01-03 16:12:00,66.3,62.6,30.07,NNW,328,4.0,4.0,88,0.11,,,0.04,12,Wunderground v.1.15,2013-01-03 21:12:00,
2013-01-03 16:17:00,66.0,62.3,30.07,NNW,329,3.0,6.0,88,0.11,,,0.05,12,Wunderground v.1.15,2013-01-03 21:17:00,
2013-01-03 16:22:00,65.8,62.5,30.07,NW,316,3.0,3.0,89,0.06,,,0.05,7,Wunderground v.1.15,2013-01-03 21:22:00,
2013-01-03 16:32:00,65.3,62.3,30.07,North,3,4.0,5.0,90,0.04,,,0.06,9,Wunderground v.1.15,2013-01-03 21:32:00,
2013-01-03 16:37:00,65.2,62.2,30.07,NNW,332,3.0,5.0,90,0.04,,,0.06,7,Wunderground v.1.15,2013-01-03 21:37:00,
2013-01-03 16:42:00,65.2,62.2,30.08,NNW,328,3.0,3.0,90,0.06,,,0.07,5,Wunderground v.1.15,2013-01-03 21:42:00,
2013-01-03 16:52:00,65.0,62.3,30.08,NNW,347,2.0,2.0,91,0.04,,,0.07,9,Wunderground v.1.15,2013-01-03 21:52:00,
2013-01-03 17:02:00,65.0,62.3,30.08,NW,308,3.0,3.0,91,0.00,,,0.08,0,Wunderground v.1.15,2013-01-03 22:02:00,
2013-01-03 17:07:00,65.0,62.6,30.09,North,350,3.0,3.0,92,0.00,,,0.08,0,Wunderground v.1.15,2013-01-03 22:07:00,
2013-01-03 17:17:00,64.8,62.4,30.08,North,353,2.0,6.0,92,0.00,,,0.08,0,Wunderground v.1.15,2013-01-03 22:17:00,
2013-01-03 17:22:00,64.8,62.4,30.08,NNW,346,2.0,2.0,92,0.00,,,0.08,0,Wunderground v.1.15,2013-01-03 22:22:00,
2013-01-03 17:32:00,64.8,62.7,30.09,NNW,335,2.0,2.0,93,0.00,,,0.09,0,Wunderground v.1.15,2013-01-03 22:32:00,
2013-01-03 17:37:00,64.7,62.6,30.09,North,356,2.0,2.0,93,0.05,,,0.10,0,Wunderground v.1.15,2013-01-03 22:37:00,
2013-01-03 17:47:00,64.7,62.6,30.09,NW,309,1.0,2.0,93,0.08,,,0.11,0,Wunderground v.1.15,2013-01-03 22:47:00,
2013-01-03 17:52:00,64.7,62.6,30.09,NW,320,1.0,2.0,93,0.07,,,0.11,0,Wunderground v.1.15,2013-01-03 22:52:00,
2013-01-03 17:57:00,64.7,62.6,30.09,NW,318,1.0,2.0,93,0.05,,,0.12,0,Wunderground v.1.15,2013-01-03 22:57:00,
2013-01-03 18:02:00,64.7,62.6,30.09,NNW,328,1.0,2.0,93,0.05,,,0.12,0,Wunderground v.1.15,2013-01-03 23:02:00,
2013-01-03 18:12:00,64.7,62.9,30.10,North,354,1.0,1.0,94,0.04,,,0.12,0,Wunderground v.1.15,2013-01-03 23:12:00,
2013-01-03 18:17:00,64.7,62.9,30.10,North,0,1.0,1.0,94,0.00,,,0.13,0,Wunderground v.1.15,2013-01-03 23:17:00,
2013-01-03 18:27:00,64.7,62.9,30.10,North,0,3.0,3.0,94,0.00,,,0.13,0,Wunderground v.1.15,2013-01-03 23:27:00,
2013-01-03 18:37:00,64.7,62.9,30.11,NNE,30,4.0,4.0,94,0.00,,,0.13,0,Wunderground v.1.15,2013-01-03 23:37:00,
2013-01-03 18:47:00,64.5,63.0,30.12,North,3,4.0,5.0,95,0.00,,,0.14,0,Wunderground v.1.15,2013-01-03 23:47:00,
2013-01-03 18:52:00,64.3,62.8,30.12,NE,56,3.0,3.0,95,0.00,,,0.14,0,Wunderground v.1.15,2013-01-03 23:52:00,
2013-01-03 19:02:00,63.5,61.7,30.12,NNE,28,5.0,5.0,94,0.00,,,0.14,0,Wunderground v.1.15,2013-01-04 00:02:00,
2013-01-03 19:12:00,62.9,61.4,30.13,North,0,5.0,5.0,95,0.00,,,0.14,0,Wunderground v.1.15,2013-01-04 00:12:00,
2013-01-03 19:17:00,62.7,61.2,30.13,North,356,5.0,5.0,95,0.00,,,0.14,0,Wunderground v.1.15,2013-01-04 00:17:00,
2013-01-03 19:27:00,62.3,60.8,30.13,NNE,24,4.0,5.0,95,0.00,,,0.14,0,Wunderground v.1.15,2013-01-04 00:27:00,
2013-01-03 19:32:00,62.0,60.6,30.13,North,0,5.0,5.0,95,0.00,,,0.14,0,Wunderground v.1.15,2013-01-04 00:32:00,
2013-01-03 19:37:00,61.8,60.4,30.14,NNE,32,5.0,5.0,95,0.00,,,0.14,0,Wunderground v.1.15,2013-01-04 00:37:00,
2013-01-03 19:42:00,61.6,60.2,30.15,NNE,16,5.0,5.0,95,0.00,,,0.14,0,Wunderground v.1.15,2013-01-04 00:42:00,
2013-01-03 19:52:00,61.0,59.6,30.15,ENE,76,5.0,7.0,95,0.00,,,0.14,0,Wunderground v.1.15,2013-01-04 00:52:00,
2013-01-03 19:57:00,60.9,59.5,30.15,NNE,30,6.0,7.0,95,0.00,,,0.14,0,Wunderground v.1.15,2013-01-04 00:57:00,
2013-01-03 20:02:00,60.5,59.1,30.15,NNW,333,6.0,6.0,95,0.00,,,0.14,0,Wunderground v.1.15,2013-01-04 01:02:00,
2013-01-03 20:07:00,60.5,59.1,30.15,North,7,6.0,7.0,95,0.00,,,0.14,0,Wunderground v.1.15,2013-01-04 01:07:00,
2013-01-03 20:12:00,60.4,59.0,30.15,NNE,20,6.0,6.0,95,0.00,,,0.14,0,Wunderground v.1.15,2013-01-04 01:12:00,
2013-01-03 20:17:00,60.2,58.8,30.15,NE,51,6.0,6.0,95,0.00,,,0.15,0,Wunderground v.1.15,2013-01-04 01:17:00,
2013-01-03 20:22:00,60.2,58.8,30.15,ENE,64,6.0,12.0,95,0.00,,,0.15,0,Wunderground v.1.15,2013-01-04 01:22:00,
2013-01-03 20:32:00,60.1,58.7,30.15,NNE,27,6.0,6.0,95,0.05,,,0.16,0,Wunderground v.1.15,2013-01-04 01:32:00,
2013-01-03 20:37:00,60.1,58.7,30.15,ENE,64,5.0,6.0,95,0.05,,,0.16,0,Wunderground v.1.15,2013-01-04 01:37:00,
2013-01-03 20:42:00,59.9,58.5,30.16,ENE,65,5.0,8.0,95,0.04,,,0.16,0,Wunderground v.1.15,2013-01-04 01:42:00,
2013-01-03 20:52:00,59.9,58.8,30.16,NE,40,4.0,4.0,96,0.00,,,0.16,0,Wunderground v.1.15,2013-01-04 01:52:00,
2013-01-03 20:57:00,59.9,58.8,30.16,North,1,4.0,6.0,96,0.00,,,0.16,0,Wunderground v.1.15,2013-01-04 01:57:00,
2013-01-03 21:02:00,59.8,58.7,30.16,NE,41,5.0,6.0,96,0.00,,,0.16,0,Wunderground v.1.15,2013-01-04 02:02:00,
2013-01-03 21:12:00,59.6,58.5,30.16,NE,45,4.0,4.0,96,0.00,,,0.16,0,Wunderground v.1.15,2013-01-04 02:12:00,
2013-01-03 21:17:00,59.5,58.4,30.16,NNE,17,5.0,5.0,96,0.00,,,0.16,0,Wunderground v.1.15,2013-01-04 02:17:00,
2013-01-03 21:27:00,59.5,58.4,30.16,NNE,16,5.0,8.0,96,0.00,,,0.16,0,Wunderground v.1.15,2013-01-04 02:27:00,
2013-01-03 21:32:00,59.6,58.5,30.16,NE,35,6.0,6.0,96,0.00,,,0.16,0,Wunderground v.1.15,2013-01-04 02:32:00,
2013-01-03 21:42:00,59.8,58.7,30.17,NE,37,4.0,4.0,96,0.00,,,0.16,0,Wunderground v.1.15,2013-01-04 02:42:00,
2013-01-03 21:52:00,59.9,58.8,30.17,NE,35,4.0,4.0,96,0.00,,,0.16,0,Wunderground v.1.15,2013-01-04 02:52:00,
2013-01-03 21:57:00,59.9,58.8,30.17,ENE,65,4.0,5.0,96,0.00,,,0.16,0,Wunderground v.1.15,2013-01-04 02:57:00,
2013-01-03 22:02:00,59.9,58.8,30.17,NNE,14,3.0,3.0,96,0.00,,,0.17,0,Wunderground v.1.15,2013-01-04 03:02:00,
2013-01-03 22:07:00,59.9,58.8,30.18,NE,37,3.0,5.0,96,0.12,,,0.18,0,Wunderground v.1.15,2013-01-04 03:07:00,
2013-01-03 22:17:00,59.9,58.8,30.18,ENE,61,4.0,8.0,96,0.21,,,0.20,0,Wunderground v.1.15,2013-01-04 03:17:00,
2013-01-03 22:22:00,59.9,58.8,30.18,NNE,13,3.0,3.0,96,0.16,,,0.21,0,Wunderground v.1.15,2013-01-04 03:22:00,
2013-01-03 22:27:00,59.9,58.8,30.18,NNE,28,2.0,3.0,96,0.12,,,0.22,0,Wunderground v.1.15,2013-01-04 03:27:00,
2013-01-03 22:32:00,59.9,58.8,30.18,NNE,25,3.0,3.0,96,0.08,,,0.22,0,Wunderground v.1.15,2013-01-04 03:32:00,
2013-01-03 22:37:00,59.9,58.8,30.18,NNE,32,3.0,3.0,96,0.06,,,0.23,0,Wunderground v.1.15,2013-01-04 03:37:00,
2013-01-03 22:42:00,59.8,58.7,30.17,NE,51,4.0,4.0,96,0.13,,,0.24,0,Wunderground v.1.15,2013-01-04 03:42:00,
2013-01-03 22:52:00,59.9,58.8,30.18,NNE,28,4.0,4.0,96,0.04,,,0.24,0,Wunderground v.1.15,2013-01-04 03:52:00,
2013-01-03 22:57:00,59.9,58.8,30.18,NNE,13,4.0,4.0,96,0.00,,,0.24,0,Wunderground v.1.15,2013-01-04 03:57:00,
2013-01-03 23:07:00,59.9,58.8,30.18,NE,41,3.0,4.0,96,0.50,,,0.26,0,Wunderground v.1.15,2013-01-04 04:07:00,
2013-01-03 23:17:00,60.1,59.2,30.17,NE,40,5.0,6.0,97,0.16,,,0.28,0,Wunderground v.1.15,2013-01-04 04:17:00,
2013-01-03 23:22:00,60.1,59.2,30.18,NE,55,6.0,6.0,97,0.08,,,0.28,0,Wunderground v.1.15,2013-01-04 04:22:00,
2013-01-03 23:32:00,60.1,59.2,30.17,ENE,58,5.0,6.0,97,0.04,,,0.29,0,Wunderground v.1.15,2013-01-04 04:32:00,
2013-01-03 23:42:00,59.9,59.0,30.17,NW,323,4.0,4.0,97,0.04,,,0.29,0,Wunderground v.1.15,2013-01-04 04:42:00,
2013-01-03 23:52:00,60.1,59.2,30.17,NE,41,2.0,2.0,97,0.00,,,0.30,0,Wunderground v.1.15,2013-01-04 04:52:00,
2013-01-03 23:57:00,60.1,59.2,30.17,NE,40,3.0,7.0,97,0.00,,,0.30,0,Wunderground v.1.15,2013-01-04 04:57:00,